Regional Weather Roundup
Issued by NWS

Home | Current Version | Previous Version | Text Only | Print | Product List | Glossary On
Versions: 1 2 3 4 5 6 7 8 9 10 11 12 13 14 15 16 17 18 19 20 21 22 23 24 25 26 27
000
ASCA42 TJSJ 271910
RWRPR
PUERTO RICO/U.S. VIRGIN ISLANDS HOURLY WEATHER ROUNDUP
NATIONAL WEATHER SERVICE SAN JUAN PR
300 PM AST TUE JUN 27 2017

PRZ001>002-007>008-010-272000-
PUERTO RICO

CITY           SKY/WX    TMP DP  RH WIND       PRES   REMARKS
SAN JUAN LMM   MOSUNNY   88  75  66 NE16      30.00F HX  97
AGUADILLA      MOSUNNY   86  75  70 E16       30.02F HX  95
CEIBA          CLOUDY    86  79  79 NE10      30.03F HX  99
$$

VIZ001>002-272000-
U.S. VIRGIN ISLANDS

CITY           SKY/WX    TMP DP  RH WIND       PRES   REMARKS
CHARLOTTE AMA  MOSUNNY   91  75  59 NE15      30.00S HX 102
CHRISTIANSTED  LGT RAIN  86  75  70 E14       30.01F HX  95
$$

HOURLY WEATHER ROUNDUP FOR THE NEWS MEDIA

CITY           SKY/WX    TMP DP  RH WIND       PRES   REMARKS
ORLANDO        MOSUNNY   92  72  51 VRB5      29.96F HX  99
NEW YORK       MOSUNNY   75  60  59 S10       29.94F
NEWARK         LGT RAIN  74  59  59 SW14G21   29.93F
CHICAGO        MOSUNNY   76  43  30 VRB6      30.09F
HARTFORD       CLOUDY    71  62  73 S18G24    29.97F
BOSTON         PTSUNNY   76  56  49 S17       29.92F
DALLAS         PTSUNNY   89  69  51 S12       29.98F HX  93
PHILADELPHIA   MOSUNNY   79  51  37 SW14G20   29.96F
LOS ANGELES    SUNNY     76  60  57 W9        29.90S
WASHINGTON DC  PTSUNNY   77  47  34 W12       30.00F



USA.gov is the U.S. government's official web portal to all federal, state and local government web resources and services.